Flag for Norway

Past Weather in Mandal, Norway — Yesterday and Last 2 Weeks

Now
59 °F

Sprinkles. Broken clouds.


Feels Like: 58 °F
Forecast: 57 / 50 °F
Wind: 6 mph from South

Location: Kristiansand / Kjevik
Current Time: Sep 23, 2020 at 1:05:16 pm
Latest Report: Sep 23, 2020 at 12:20 pm
Visibility: 4 mi
Pressure29.47 "Hg
Humidity: 100%
Dew Point: 59 °F
Location of MandalLocation

Past Weather in Mandal — Graph

°F

Mandal Temperature Yesterday

Maximum temperature yesterday: 61 °F (at 3:20 pm)
Minimum temperature yesterday: 54 °F (at 12:20 am)
Average temperature yesterday: 57 °F

High & Low Weather Summary for the Past Weeks

 TemperatureHumidityPressure
High72 °F (Sep 18, 3:50 pm)100% (Sep 9, 5:20 am)30.51 "Hg (Sep 9, 5:20 am)
Low36 °F (Sep 17, 4:20 am)32% (Sep 16, 4:20 pm)29.47 "Hg (Sep 23, 8:20 am)
Average56 °F78%30.00 "Hg
* Reported Sep 8 11:20 am — Sep 23 11:50 am, Mandal. Weather by CustomWeather, © 2020

Note: Actual official high and low records may vary slightly from our data, if they occured in-between our weather recording intervals... More about our weather records

Mandal Weather History for the Previous 24 Hours

Scroll right to see more
 ConditionsComfort  
Time TempWeatherWind HumidityBarometerVisibility
11:50 am
Wed, Sep 23
59 °FSprinkles. Broken clouds.7 mph100%29.47 "Hg5 mi
11:20 am59 °FLight rain. Partly sunny.20 mph100%29.47 "Hg5 mi
10:50 am59 °FRain showers. Partly sunny.18 mph100%29.47 "Hg4 mi
10:20 am61 °FRain. Fog.12 mph94%29.47 "Hg3 mi
9:50 am61 °FPartly sunny.12 mph94%29.47 "Hg5 mi
9:20 am59 °FDrizzle. Partly sunny.10 mph100%29.47 "Hg6 mi
8:50 am59 °FLight rain. Partly sunny.9 mph100%29.47 "Hg4 mi
8:20 am59 °FLight rain. Broken clouds.10 mph100%29.47 "Hg4 mi
7:50 am59 °FLight rain. Partly sunny.10 mph100%29.50 "Hg4 mi
7:20 am61 °FDrizzle. Broken clouds.10 mph100%29.50 "Hg4 mi
6:50 am61 °FPassing clouds.14 mph94%29.50 "Hg5 mi
6:20 am61 °FPassing clouds.14 mph94%29.50 "Hg5 mi
5:50 am59 °FPassing clouds.10 mph100%29.50 "HgN/A
5:20 am61 °FMostly cloudy.12 mph94%29.50 "Hg4 mi
4:50 am61 °FMostly cloudy.8 mph94%29.50 "Hg4 mi
4:20 am61 °FMostly cloudy.7 mph94%29.53 "Hg4 mi
3:50 am61 °FLow clouds.9 mph94%29.53 "Hg5 mi
3:20 am61 °FMostly cloudy.12 mph94%29.53 "Hg6 mi
2:50 am61 °FLow clouds.10 mph94%29.56 "HgN/A
2:20 am61 °FLow clouds.8 mph88%29.56 "HgN/A
1:20 am59 °FLow clouds.12 mph94%29.56 "HgN/A
12:50 am59 °FMostly cloudy.9 mph94%29.59 "HgN/A
12:20 am59 °FMostly cloudy.12 mph100%29.59 "HgN/A
11:50 pm
Tue, Sep 22
59 °FLow clouds.8 mph94%29.59 "HgN/A
11:20 pm59 °FPassing clouds.9 mph88%29.62 "HgN/A
10:50 pm59 °FPassing clouds.12 mph82%29.62 "HgN/A
10:20 pm59 °FPassing clouds.7 mph82%29.62 "HgN/A
9:50 pm59 °FPassing clouds.8 mph82%29.62 "HgN/A
9:20 pm59 °FPassing clouds.10 mph82%29.62 "HgN/A
8:20 pm59 °FPassing clouds.12 mph88%29.62 "HgN/A
7:50 pm59 °FPassing clouds.9 mph82%29.65 "HgN/A
7:20 pm59 °FDrizzle. Broken clouds.9 mph88%29.65 "HgN/A
6:50 pm59 °FDrizzle. Partly sunny.13 mph94%29.65 "Hg6 mi
6:20 pm59 °FDrizzle. Partly sunny.8 mph82%29.65 "HgN/A
5:50 pm59 °FPartly sunny.6 mph77%29.68 "HgN/A
5:20 pm59 °FPartly sunny.9 mph77%29.68 "HgN/A
4:50 pm59 °FBroken clouds.12 mph72%29.71 "HgN/A
4:20 pm61 °FBroken clouds.13 mph68%29.71 "HgN/A
3:20 pm61 °FPartly sunny.10 mph63%29.71 "HgN/A
2:50 pm59 °FPartly sunny.13 mph68%29.74 "HgN/A
2:20 pm59 °FPartly sunny.12 mph68%29.74 "HgN/A
1:50 pm59 °FPartly sunny.12 mph68%29.74 "HgN/A
1:20 pm59 °FOvercast.12 mph68%29.74 "HgN/A
Weather by CustomWeather, © 2020

See weather overview